Time,TemperatureF,DewpointF,PressureIn,WindDirection,WindDirectionDegrees,WindSpeedMPH,WindSpeedGustMPH,Humidity,HourlyPrecipIn,Conditions,Clouds,dailyrainin,SoftwareType,DateUTC
2013-04-20 03:11:00,61.0,60.0,-100.00,SW,215,6.0,17.0,97,-99.99,,,-99.99,,2013-04-20 07:11:00,
2013-04-20 13:23:00,53.0,34.0,-100.00,West,270,12.0,21.0,49,-99.99,,,-99.99,,2013-04-20 17:23:00,
2013-04-20 13:33:00,53.0,35.0,-100.00,WNW,290,12.0,20.0,50,-99.99,,,-99.99,,2013-04-20 17:33:00,
2013-04-20 13:42:00,54.0,33.0,-100.00,WNW,295,15.0,24.0,46,-99.99,,,-99.99,,2013-04-20 17:42:00,
2013-04-20 13:52:00,54.0,31.0,-100.00,WNW,290,12.0,24.0,42,-99.99,,,-99.99,,2013-04-20 17:52:00,
2013-04-20 14:02:00,53.0,30.0,-100.00,WNW,295,15.0,22.0,40,-99.99,,,-99.99,,2013-04-20 18:02:00,
2013-04-20 14:13:00,54.0,31.0,-100.00,WNW,285,13.0,27.0,42,-99.99,,,-99.99,,2013-04-20 18:13:00,
2013-04-20 14:22:00,54.0,31.0,-100.00,NW,305,16.0,25.0,41,-99.99,,,-99.99,,2013-04-20 18:22:00,
2013-04-20 14:32:00,54.0,31.0,-100.00,WNW,295,16.0,24.0,42,-99.99,,,-99.99,,2013-04-20 18:32:00,
2013-04-20 14:42:00,55.0,31.0,-100.00,NW,305,15.0,25.0,41,-99.99,,,-99.99,,2013-04-20 18:42:00,
2013-04-20 14:52:00,54.0,31.0,-100.00,WNW,295,15.0,23.0,42,-99.99,,,-99.99,,2013-04-20 18:52:00,
2013-04-20 15:02:00,54.0,31.0,-100.00,WNW,300,17.0,24.0,40,-99.99,,,-99.99,,2013-04-20 19:02:00,
2013-04-20 15:11:00,54.0,30.0,-100.00,NW,305,18.0,27.0,40,-99.99,,,-99.99,,2013-04-20 19:11:00,
2013-04-20 15:22:00,54.0,31.0,-100.00,NW,315,9.0,28.0,41,-99.99,,,-99.99,,2013-04-20 19:22:00,
2013-04-20 15:32:00,54.0,29.0,-100.00,WNW,300,12.0,20.0,39,-99.99,,,-99.99,,2013-04-20 19:32:00,
2013-04-20 15:42:00,53.0,28.0,-100.00,NW,320,14.0,24.0,38,-99.99,,,-99.99,,2013-04-20 19:42:00,
2013-04-20 15:52:00,54.0,30.0,-100.00,WNW,300,16.0,23.0,39,-99.99,,,-99.99,,2013-04-20 19:52:00,
2013-04-20 16:02:00,54.0,30.0,-100.00,NNW,340,13.0,20.0,39,-99.99,,,-99.99,,2013-04-20 20:02:00,
2013-04-20 16:12:00,53.0,30.0,-100.00,NW,310,12.0,22.0,41,-99.99,,,-99.99,,2013-04-20 20:12:00,
2013-04-20 16:42:00,54.0,30.0,-100.00,NW,315,14.0,20.0,39,-99.99,,,-99.99,,2013-04-20 20:42:00,
2013-04-20 16:52:00,54.0,30.0,-100.00,NW,310,13.0,20.0,39,-99.99,,,-99.99,,2013-04-20 20:52:00,
2013-04-20 17:02:00,54.0,29.0,-100.00,WNW,290,12.0,15.0,38,-99.99,,,-99.99,,2013-04-20 21:02:00,
2013-04-20 17:12:00,54.0,29.0,-100.00,NW,310,12.0,20.0,38,-99.99,,,-99.99,,2013-04-20 21:12:00,
2013-04-20 17:20:00,56.0,28.0,-100.00,NW,305,14.0,21.0,35,-99.99,,,-99.99,,2013-04-20 21:20:00,
2013-04-20 17:22:00,55.0,30.0,-100.00,NW,305,13.0,18.0,39,-99.99,,,-99.99,,2013-04-20 21:22:00,
2013-04-20 17:52:00,55.0,29.0,-100.00,NW,315,9.0,16.0,37,-99.99,,,-99.99,,2013-04-20 21:52:00,
2013-04-20 18:03:00,56.0,28.0,-100.00,NW,305,14.0,21.0,35,-99.99,,,-99.99,,2013-04-20 22:03:00,
2013-04-20 18:13:00,56.0,28.0,-100.00,NW,305,14.0,21.0,35,-99.99,,,-99.99,,2013-04-20 22:13:00,
2013-04-20 18:32:00,55.0,27.0,-100.00,NW,325,13.0,23.0,33,-99.99,,,-99.99,,2013-04-20 22:32:00,
2013-04-20 18:42:00,55.0,26.0,-100.00,NW,315,14.0,20.0,33,-99.99,,,-99.99,,2013-04-20 22:42:00,
2013-04-20 18:52:00,55.0,26.0,-100.00,NW,315,15.0,24.0,32,-99.99,,,-99.99,,2013-04-20 22:52:00,
2013-04-20 19:02:00,54.0,26.0,-100.00,NW,315,12.0,22.0,33,-99.99,,,-99.99,,2013-04-20 23:02:00,
2013-04-20 19:12:00,54.0,25.0,-100.00,NW,320,13.0,21.0,32,-99.99,,,-99.99,,2013-04-20 23:12:00,
2013-04-20 19:22:00,54.0,26.0,-100.00,NW,325,12.0,21.0,33,-99.99,,,-99.99,,2013-04-20 23:22:00,
2013-04-20 19:32:00,54.0,26.0,-100.00,NW,320,10.0,16.0,33,-99.99,,,-99.99,,2013-04-20 23:32:00,
2013-04-20 19:42:00,54.0,26.0,-100.00,NW,325,10.0,18.0,34,-99.99,,,-99.99,,2013-04-20 23:42:00,
2013-04-20 19:52:00,53.0,26.0,-100.00,NNW,330,9.0,17.0,35,-99.99,,,-99.99,,2013-04-20 23:52:00,
2013-04-20 20:01:00,53.0,27.0,-100.00,NW,325,12.0,17.0,36,-99.99,,,-99.99,,2013-04-21 00:01:00,
2013-04-20 20:12:00,52.0,26.0,-100.00,NW,325,9.0,14.0,36,-99.99,,,-99.99,,2013-04-21 00:12:00,
2013-04-20 20:22:00,52.0,27.0,-100.00,NNW,330,6.0,17.0,37,-99.99,,,-99.99,,2013-04-21 00:22:00,
2013-04-20 20:32:00,52.0,27.0,-100.00,NNW,330,6.0,17.0,37,-99.99,,,-99.99,,2013-04-21 00:32:00,
2013-04-20 20:52:00,51.0,27.0,-100.00,NW,325,13.0,18.0,40,-99.99,,,-99.99,,2013-04-21 00:52:00,
2013-04-20 21:01:00,50.0,27.0,-100.00,NNW,345,7.0,22.0,40,-99.99,,,-99.99,,2013-04-21 01:01:00,
2013-04-20 21:12:00,50.0,27.0,-100.00,NW,320,12.0,18.0,40,-99.99,,,-99.99,,2013-04-21 01:12:00,
2013-04-20 21:22:00,50.0,27.0,-100.00,NW,325,7.0,20.0,41,-99.99,,,-99.99,,2013-04-21 01:22:00,
2013-04-20 21:42:00,49.0,27.0,-100.00,NNW,330,5.0,12.0,42,-99.99,,,-99.99,,2013-04-21 01:42:00,
2013-04-20 21:52:00,48.0,26.0,-100.00,NNW,340,7.0,13.0,42,-99.99,,,-99.99,,2013-04-21 01:52:00,
2013-04-20 22:02:00,48.0,26.0,-100.00,NW,320,6.0,15.0,42,-99.99,,,-99.99,,2013-04-21 02:02:00,
2013-04-20 22:22:00,47.0,26.0,-100.00,NW,325,7.0,17.0,43,-99.99,,,-99.99,,2013-04-21 02:22:00,
2013-04-20 22:32:00,47.0,26.0,-100.00,NW,325,9.0,17.0,43,-99.99,,,-99.99,,2013-04-21 02:32:00,
2013-04-20 22:42:00,46.0,26.0,-100.00,NW,325,5.0,14.0,44,-99.99,,,-99.99,,2013-04-21 02:42:00,
2013-04-20 23:02:00,46.0,26.0,-100.00,NW,310,13.0,18.0,45,-99.99,,,-99.99,,2013-04-21 03:02:00,
2013-04-20 23:11:00,45.0,25.0,-100.00,NW,320,12.0,22.0,45,-99.99,,,-99.99,,2013-04-21 03:11:00,
2013-04-20 23:22:00,45.0,25.0,-100.00,NW,315,14.0,24.0,45,-99.99,,,-99.99,,2013-04-21 03:22:00,
2013-04-20 23:30:00,43.0,23.0,-100.00,NW,315,15.0,22.0,45,-99.99,,,-99.99,,2013-04-21 03:30:00,